AAL35 KLAX-KLAS

Flight info

Callsign AAL35
Flight time 0h 50m
Altitude 25000
Route ORCKA5 MISEN RNDRZ4
Aircraft B738/M-SDE2E3FGHIRWXY/LB1

Departure

Time 2026-05-07 05:08
Airport Los Angeles International Airport (KLAX)

Arrival

Time 2026-05-07 05:59
Airport Harry Reid International Airport (KLAS)
Time Latitude Longitude Altitude Speed Heading
2026-05-07 04:37 33.93963 -118.40604 124 ft 0 kts 322°
2026-05-07 04:43 33.93955 -118.40595 124 ft 2 kts 293°
2026-05-07 04:43 33.93953 -118.40578 124 ft 2 kts 259°
2026-05-07 04:43 33.93959 -118.40561 124 ft 2 kts 224°
2026-05-07 04:44 33.93972 -118.40552 124 ft 2 kts 190°
2026-05-07 04:44 33.93987 -118.40553 124 ft 2 kts 167°
2026-05-07 04:44 33.93994 -118.40555 124 ft 0 kts 173°
2026-05-07 04:53 33.93990 -118.40554 124 ft 3 kts 173°
2026-05-07 04:53 33.93912 -118.40542 124 ft 17 kts 173°
2026-05-07 04:53 33.93849 -118.40519 124 ft 6 kts 153°
2026-05-07 04:54 33.93833 -118.40475 124 ft 6 kts 92°
2026-05-07 04:54 33.93835 -118.40416 123 ft 7 kts 83°
2026-05-07 04:54 33.93843 -118.40347 121 ft 9 kts 82°
2026-05-07 04:54 33.93852 -118.40270 121 ft 9 kts 82°
2026-05-07 04:55 33.93861 -118.40197 121 ft 9 kts 82°
2026-05-07 04:55 33.93872 -118.40095 119 ft 15 kts 82°
2026-05-07 04:55 33.93890 -118.39932 116 ft 23 kts 83°
2026-05-07 04:55 33.93914 -118.39714 112 ft 30 kts 83°
2026-05-07 04:56 33.93930 -118.39566 111 ft 30 kts 82°
2026-05-07 04:56 33.93949 -118.39365 109 ft 21 kts 85°
2026-05-07 04:56 33.93965 -118.39188 108 ft 21 kts 83°
2026-05-07 04:57 33.93984 -118.39008 105 ft 22 kts 83°
2026-05-07 04:57 33.94002 -118.38824 105 ft 21 kts 83°
2026-05-07 04:57 33.94019 -118.38644 105 ft 21 kts 84°
2026-05-07 04:57 33.94036 -118.38470 104 ft 21 kts 83°
2026-05-07 04:58 33.94056 -118.38290 101 ft 21 kts 82°
2026-05-07 04:58 33.94074 -118.38129 101 ft 9 kts 83°
2026-05-07 04:58 33.94076 -118.38110 101 ft 0 kts 81°
2026-05-07 04:58 33.94082 -118.38081 101 ft 4 kts 76°
2026-05-07 04:59 33.94088 -118.38045 101 ft 4 kts 91°
2026-05-07 04:59 33.94081 -118.38025 101 ft 0 kts 168°
2026-05-07 04:59 33.94080 -118.38025 101 ft 0 kts 169°
2026-05-07 05:05 33.94070 -118.38023 101 ft 5 kts 169°
2026-05-07 05:05 33.94025 -118.38017 101 ft 7 kts 190°
2026-05-07 05:05 33.93980 -118.38081 101 ft 10 kts 257°
2026-05-07 05:06 33.93978 -118.38092 101 ft 1 kts 259°
2026-05-07 05:06 33.93977 -118.38094 101 ft 0 kts 259°
2026-05-07 05:07 33.93957 -118.38279 101 ft 66 kts 263°
2026-05-07 05:08 33.93858 -118.39222 110 ft 154 kts 263°
2026-05-07 05:08 33.93714 -118.40620 717 ft 183 kts 263°
2026-05-07 05:08 33.93497 -118.42169 1737 ft 195 kts 258°
2026-05-07 05:08 33.93167 -118.43694 2643 ft 198 kts 258°
2026-05-07 05:09 33.93024 -118.45472 2986 ft 230 kts 270°
2026-05-07 05:09 33.92954 -118.47497 3430 ft 252 kts 267°
2026-05-07 05:09 33.92734 -118.49533 4578 ft 247 kts 263°
2026-05-07 05:09 33.92460 -118.51576 5541 ft 251 kts 262°
2026-05-07 05:10 33.92179 -118.53642 6527 ft 255 kts 263°
2026-05-07 05:10 33.91896 -118.55741 7365 ft 266 kts 263°
2026-05-07 05:10 33.91587 -118.57980 8139 ft 282 kts 263°
2026-05-07 05:10 33.91252 -118.60380 8849 ft 299 kts 263°
2026-05-07 05:11 33.90904 -118.62852 9694 ft 309 kts 263°
2026-05-07 05:11 33.90329 -118.65366 10520 ft 322 kts 246°
2026-05-07 05:11 33.88993 -118.67621 11149 ft 339 kts 222°
2026-05-07 05:11 33.86972 -118.69164 11788 ft 352 kts 200°
2026-05-07 05:12 33.84554 -118.69815 11952 ft 367 kts 179°
2026-05-07 05:12 33.82040 -118.69429 11959 ft 358 kts 158°
2026-05-07 05:12 33.79872 -118.68079 11975 ft 348 kts 139°
2026-05-07 05:12 33.78261 -118.65996 11973 ft 341 kts 119°
2026-05-07 05:13 33.77204 -118.63443 11961 ft 336 kts 107°
2026-05-07 05:13 33.76665 -118.60745 11962 ft 332 kts 92°
2026-05-07 05:13 33.76879 -118.57991 12109 ft 339 kts 71°
2026-05-07 05:13 33.77793 -118.55444 13268 ft 333 kts 61°
2026-05-07 05:14 33.78981 -118.53097 14179 ft 336 kts 56°
2026-05-07 05:14 33.80008 -118.50562 14976 ft 345 kts 71°
2026-05-07 05:14 33.80287 -118.47620 15415 ft 357 kts 91°
2026-05-07 05:14 33.79585 -118.44777 15822 ft 362 kts 116°
2026-05-07 05:15 33.77929 -118.42498 16236 ft 372 kts 137°
2026-05-07 05:15 33.75869 -118.40572 16652 ft 378 kts 133°
2026-05-07 05:15 33.74279 -118.38090 17058 ft 374 kts 113°
2026-05-07 05:15 33.73355 -118.35202 17475 ft 371 kts 102°
2026-05-07 05:16 33.72791 -118.32352 17861 ft 372 kts 98°
2026-05-07 05:16 33.72383 -118.29256 18274 ft 371 kts 90°
2026-05-07 05:16 33.72723 -118.26226 18683 ft 361 kts 67°
2026-05-07 05:16 33.73911 -118.23619 19104 ft 360 kts 54°
2026-05-07 05:17 33.75380 -118.21170 19521 ft 362 kts 52°
2026-05-07 05:17 33.76875 -118.18748 19933 ft 364 kts 52°
2026-05-07 05:17 33.78364 -118.16284 20347 ft 367 kts 53°
2026-05-07 05:17 33.79843 -118.13763 20762 ft 369 kts 53°
2026-05-07 05:18 33.81282 -118.11249 21175 ft 370 kts 54°
2026-05-07 05:18 33.82735 -118.08677 21592 ft 373 kts 54°
2026-05-07 05:18 33.84192 -118.06078 22008 ft 375 kts 54°
2026-05-07 05:18 33.85655 -118.03458 22425 ft 377 kts 54°
2026-05-07 05:19 33.87128 -118.00815 22846 ft 381 kts 54°
2026-05-07 05:19 33.88615 -117.98184 23267 ft 381 kts 53°
2026-05-07 05:19 33.90205 -117.95634 23696 ft 382 kts 48°
2026-05-07 05:19 33.92034 -117.93317 24127 ft 384 kts 41°
2026-05-07 05:20 33.94064 -117.91217 24561 ft 387 kts 38°
2026-05-07 05:20 33.96200 -117.89218 24949 ft 390 kts 36°
2026-05-07 05:20 33.98370 -117.87266 25070 ft 392 kts 36°
2026-05-07 05:20 34.00569 -117.85305 25085 ft 390 kts 36°
2026-05-07 05:21 34.02736 -117.83367 25086 ft 388 kts 36°
2026-05-07 05:21 34.07024 -117.79433 25096 ft 387 kts 38°
2026-05-07 05:21 34.09044 -117.77300 25099 ft 389 kts 43°
2026-05-07 05:22 34.10930 -117.74913 25100 ft 391 kts 47°
2026-05-07 05:22 34.12685 -117.72431 25099 ft 390 kts 49°
2026-05-07 05:22 34.14393 -117.69895 25103 ft 388 kts 49°
2026-05-07 05:22 34.16073 -117.67358 25107 ft 389 kts 49°
2026-05-07 05:23 34.17763 -117.64802 25110 ft 389 kts 50°
2026-05-07 05:23 34.19447 -117.62263 25111 ft 389 kts 50°
2026-05-07 05:23 34.21140 -117.59720 25109 ft 390 kts 49°
2026-05-07 05:23 34.22829 -117.57190 25110 ft 389 kts 49°
2026-05-07 05:24 34.24548 -117.54618 25113 ft 389 kts 49°
2026-05-07 05:24 34.26240 -117.52090 25113 ft 390 kts 49°
2026-05-07 05:24 34.27944 -117.49546 25122 ft 389 kts 49°
2026-05-07 05:24 34.29641 -117.47012 25140 ft 389 kts 49°
2026-05-07 05:25 34.31333 -117.44488 25152 ft 389 kts 49°
2026-05-07 05:25 34.33041 -117.41936 25157 ft 389 kts 49°
2026-05-07 05:25 34.34746 -117.39388 25158 ft 389 kts 49°
2026-05-07 05:25 34.36427 -117.36872 25160 ft 390 kts 49°
2026-05-07 05:26 34.38135 -117.34313 25160 ft 389 kts 50°
2026-05-07 05:26 34.39831 -117.31770 25155 ft 389 kts 50°
2026-05-07 05:26 34.41533 -117.29218 25155 ft 389 kts 49°
2026-05-07 05:26 34.43225 -117.26678 25155 ft 388 kts 50°
2026-05-07 05:27 34.44933 -117.24115 25149 ft 388 kts 50°
2026-05-07 05:27 34.46614 -117.21589 25144 ft 389 kts 50°
2026-05-07 05:27 34.48298 -117.19056 25136 ft 389 kts 50°
2026-05-07 05:27 34.49990 -117.16509 25131 ft 388 kts 50°
2026-05-07 05:28 34.51702 -117.13931 25125 ft 388 kts 50°
2026-05-07 05:28 34.53384 -117.11395 25125 ft 388 kts 50°
2026-05-07 05:28 34.55070 -117.08865 25122 ft 389 kts 49°
2026-05-07 05:28 34.56795 -117.06326 25117 ft 388 kts 49°
2026-05-07 05:29 34.58517 -117.03825 25116 ft 388 kts 49°
2026-05-07 05:29 34.60267 -117.01296 25118 ft 388 kts 49°
2026-05-07 05:29 34.62002 -116.98783 25115 ft 389 kts 49°
2026-05-07 05:29 34.63730 -116.96274 25122 ft 388 kts 49°
2026-05-07 05:30 34.65430 -116.93799 25120 ft 387 kts 49°
2026-05-07 05:30 34.67180 -116.91248 25119 ft 388 kts 49°
2026-05-07 05:30 34.68899 -116.88737 25112 ft 389 kts 49°
2026-05-07 05:30 34.70619 -116.86223 25117 ft 389 kts 49°
2026-05-07 05:31 34.72349 -116.83691 25123 ft 388 kts 49°
2026-05-07 05:31 34.74061 -116.81184 25126 ft 389 kts 49°
2026-05-07 05:31 34.75800 -116.78636 25126 ft 388 kts 49°
2026-05-07 05:31 34.77508 -116.76131 25123 ft 388 kts 49°
2026-05-07 05:32 34.79238 -116.73594 25114 ft 388 kts 49°
2026-05-07 05:32 34.80938 -116.71098 25110 ft 389 kts 49°
2026-05-07 05:32 34.82680 -116.68538 25103 ft 388 kts 49°
2026-05-07 05:32 34.84412 -116.66054 25093 ft 387 kts 47°
2026-05-07 05:33 34.86283 -116.63715 25084 ft 387 kts 42°
2026-05-07 05:33 34.88325 -116.61540 25078 ft 388 kts 39°
2026-05-07 05:33 34.90431 -116.59470 25065 ft 388 kts 38°
2026-05-07 05:33 34.92553 -116.57446 25066 ft 388 kts 38°
2026-05-07 05:34 34.94684 -116.55425 25060 ft 389 kts 37°
2026-05-07 05:34 34.96817 -116.53394 25056 ft 388 kts 38°
2026-05-07 05:34 34.98933 -116.51366 25051 ft 387 kts 38°
2026-05-07 05:34 35.01027 -116.49349 25047 ft 387 kts 38°
2026-05-07 05:35 35.03139 -116.47306 25039 ft 389 kts 38°
2026-05-07 05:35 35.05260 -116.45248 25040 ft 388 kts 38°
2026-05-07 05:35 35.07365 -116.43204 25041 ft 387 kts 38°
2026-05-07 05:35 35.09468 -116.41147 25037 ft 388 kts 39°
2026-05-07 05:36 35.11484 -116.38945 25038 ft 388 kts 43°
2026-05-07 05:36 35.13379 -116.36612 25038 ft 388 kts 45°
2026-05-07 05:36 35.15221 -116.34218 25042 ft 388 kts 47°
2026-05-07 05:36 35.17056 -116.31792 25046 ft 389 kts 47°
2026-05-07 05:37 35.18907 -116.29339 25047 ft 389 kts 46°
2026-05-07 05:37 35.20726 -116.26939 25054 ft 388 kts 46°
2026-05-07 05:37 35.22559 -116.24530 25056 ft 388 kts 46°
2026-05-07 05:37 35.24383 -116.22101 25059 ft 389 kts 47°
2026-05-07 05:38 35.26203 -116.19612 25058 ft 389 kts 47°
2026-05-07 05:38 35.27984 -116.17151 25053 ft 389 kts 48°
2026-05-07 05:38 35.29778 -116.14665 25055 ft 389 kts 48°
2026-05-07 05:38 35.31562 -116.12195 25053 ft 389 kts 48°
2026-05-07 05:39 35.33351 -116.09725 25052 ft 389 kts 48°
2026-05-07 05:39 35.35160 -116.07230 25051 ft 388 kts 47°
2026-05-07 05:39 35.36954 -116.04759 25051 ft 388 kts 47°
2026-05-07 05:39 35.38745 -116.02294 25053 ft 388 kts 47°
2026-05-07 05:40 35.40542 -115.99819 25059 ft 389 kts 47°
2026-05-07 05:40 35.42324 -115.97364 24806 ft 388 kts 47°
2026-05-07 05:40 35.44092 -115.94927 24476 ft 387 kts 47°
2026-05-07 05:40 35.45952 -115.92364 24410 ft 414 kts 47°
2026-05-07 05:41 35.47921 -115.89651 24439 ft 439 kts 47°
2026-05-07 05:41 35.49990 -115.86799 24487 ft 462 kts 47°
2026-05-07 05:41 35.52159 -115.83806 24061 ft 480 kts 47°
2026-05-07 05:41 35.54301 -115.80845 23346 ft 456 kts 48°
2026-05-07 05:42 35.56351 -115.78003 22518 ft 437 kts 48°
2026-05-07 05:42 35.58328 -115.75258 21685 ft 420 kts 48°
2026-05-07 05:42 35.60229 -115.72623 20939 ft 403 kts 47°
2026-05-07 05:42 35.62062 -115.70122 20279 ft 390 kts 47°
2026-05-07 05:43 35.63834 -115.67729 19691 ft 374 kts 47°
2026-05-07 05:43 35.65549 -115.65424 19134 ft 358 kts 46°
2026-05-07 05:43 35.67199 -115.63205 18582 ft 344 kts 47°
2026-05-07 05:43 35.68780 -115.61074 18133 ft 342 kts 47°
2026-05-07 05:44 35.70423 -115.58857 17997 ft 357 kts 46°
2026-05-07 05:44 35.72113 -115.56694 17880 ft 345 kts 43°
2026-05-07 05:44 35.73908 -115.54820 17572 ft 327 kts 36°
2026-05-07 05:44 35.75779 -115.53340 17399 ft 315 kts 31°
2026-05-07 05:45 35.77636 -115.52063 17281 ft 302 kts 29°
2026-05-07 05:45 35.79462 -115.50856 17024 ft 294 kts 29°
2026-05-07 05:45 35.81268 -115.49645 16533 ft 295 kts 29°
2026-05-07 05:45 35.83049 -115.48423 16116 ft 293 kts 30°
2026-05-07 05:46 35.84802 -115.47201 15742 ft 290 kts 30°
2026-05-07 05:46 35.86553 -115.45972 15339 ft 288 kts 30°
2026-05-07 05:46 35.88283 -115.44755 14943 ft 286 kts 30°
2026-05-07 05:46 35.90001 -115.43546 14538 ft 284 kts 30°
2026-05-07 05:47 35.91722 -115.42338 14125 ft 282 kts 30°
2026-05-07 05:47 35.93408 -115.41160 13738 ft 280 kts 29°
2026-05-07 05:47 35.95093 -115.39986 13355 ft 278 kts 29°
2026-05-07 05:47 35.96764 -115.38822 12984 ft 275 kts 29°
2026-05-07 05:48 35.98415 -115.37669 12616 ft 273 kts 30°
2026-05-07 05:48 35.99988 -115.36334 12230 ft 271 kts 41°
2026-05-07 05:48 36.01082 -115.34473 11867 ft 272 kts 66°
2026-05-07 05:48 36.01447 -115.32177 11516 ft 274 kts 86°
2026-05-07 05:49 36.01366 -115.29836 11138 ft 274 kts 90°
2026-05-07 05:49 36.01239 -115.27505 10800 ft 271 kts 91°
2026-05-07 05:49 36.01120 -115.25216 10471 ft 269 kts 90°
2026-05-07 05:49 36.01006 -115.22901 10106 ft 268 kts 90°
2026-05-07 05:50 36.00895 -115.20645 9954 ft 259 kts 90°
2026-05-07 05:50 36.00784 -115.18437 9730 ft 258 kts 90°
2026-05-07 05:50 36.00676 -115.16213 9498 ft 265 kts 91°
2026-05-07 05:50 36.00562 -115.13963 9405 ft 255 kts 90°
2026-05-07 05:51 36.00452 -115.11830 9317 ft 245 kts 90°
2026-05-07 05:51 36.00346 -115.09763 9140 ft 239 kts 90°
2026-05-07 05:51 36.00244 -115.07710 8848 ft 238 kts 90°
2026-05-07 05:51 36.00143 -115.05685 8574 ft 237 kts 91°
2026-05-07 05:52 36.00039 -115.03661 8309 ft 236 kts 91°
2026-05-07 05:52 35.99937 -115.01690 8067 ft 223 kts 91°
2026-05-07 05:52 35.99862 -114.99863 7828 ft 207 kts 88°
2026-05-07 05:52 35.99867 -114.98113 7460 ft 199 kts 86°
2026-05-07 05:53 35.99882 -114.96435 7202 ft 195 kts 86°
2026-05-07 05:53 35.99899 -114.94773 6993 ft 196 kts 83°
2026-05-07 05:53 36.00217 -114.93144 6705 ft 195 kts 59°
2026-05-07 05:53 36.01059 -114.91864 6432 ft 189 kts 39°
2026-05-07 05:54 36.02130 -114.90952 6187 ft 189 kts 25°
2026-05-07 05:54 36.03388 -114.90562 5943 ft 190 kts
2026-05-07 05:54 36.04713 -114.90791 5688 ft 191 kts 344°
2026-05-07 05:54 36.05910 -114.91497 5438 ft 193 kts 324°
2026-05-07 05:55 36.06806 -114.92733 5197 ft 196 kts 301°
2026-05-07 05:55 36.07273 -114.94292 4949 ft 197 kts 280°
2026-05-07 05:55 36.07362 -114.95981 4755 ft 197 kts 272°
2026-05-07 05:55 36.07367 -114.97685 4462 ft 194 kts 271°
2026-05-07 05:56 36.07366 -114.99265 4179 ft 181 kts 270°
2026-05-07 05:56 36.07367 -115.00780 3933 ft 169 kts 270°
2026-05-07 05:56 36.07368 -115.02183 3756 ft 159 kts 270°
2026-05-07 05:56 36.07369 -115.03542 3557 ft 157 kts 269°
2026-05-07 05:57 36.07370 -115.04903 3308 ft 161 kts 269°
2026-05-07 05:57 36.07369 -115.06280 3088 ft 158 kts 269°
2026-05-07 05:57 36.07369 -115.07629 2890 ft 159 kts 269°
2026-05-07 05:57 36.07368 -115.09006 2679 ft 159 kts 269°
2026-05-07 05:58 36.07369 -115.10371 2468 ft 158 kts 269°
2026-05-07 05:58 36.07362 -115.11729 2261 ft 158 kts 269°
2026-05-07 05:58 36.07362 -115.13040 2082 ft 146 kts 269°
2026-05-07 05:58 36.07364 -115.14079 2104 ft 85 kts 270°
2026-05-07 05:59 36.07361 -115.14607 2119 ft 53 kts 272°
2026-05-07 05:59 36.07421 -115.14951 2130 ft 28 kts 290°
2026-05-07 05:59 36.07444 -115.15009 2132 ft 0 kts 302°
2026-05-07 05:59 36.07445 -115.15009 2132 ft 0 kts 302°
2026-05-07 06:00 36.07454 -115.15028 2133 ft 7 kts 302°
2026-05-07 06:00 36.07503 -115.15113 2135 ft 12 kts 319°
2026-05-07 06:00 36.07581 -115.15168 2135 ft 12 kts 333°
2026-05-07 06:00 36.07657 -115.15214 2136 ft 12 kts 335°
2026-05-07 06:01 36.07734 -115.15253 2136 ft 11 kts 342°
2026-05-07 06:01 36.07816 -115.15235 2133 ft 13 kts 26°
2026-05-07 06:01 36.07885 -115.15154 2129 ft 14 kts 84°
2026-05-07 06:01 36.07882 -115.15011 2124 ft 18 kts 99°
2026-05-07 06:02 36.07863 -115.14841 2118 ft 21 kts 96°
2026-05-07 06:02 36.07850 -115.14649 2113 ft 23 kts 94°
2026-05-07 06:02 36.07845 -115.14478 2107 ft 5 kts 64°
2026-05-07 06:02 36.07888 -115.14447 2105 ft 8 kts 17°
2026-05-07 06:03 36.07951 -115.14444 2104 ft 9 kts 359°
2026-05-07 06:03 36.08017 -115.14462 2103 ft 9 kts 329°
2026-05-07 06:03 36.08024 -115.14500 2105 ft 3 kts 271°
2026-05-07 06:03 36.08025 -115.14540 2105 ft 5 kts 272°
2026-05-07 06:04 36.08026 -115.14553 2106 ft 0 kts 271°